Regional Weather Roundup
Issued by NWS

Home | Current Version | Previous Version | Graphics & Text | Print | Product List | Glossary On
Versions: 1 2 3 4 5 6 7 8 9 10 11 12 13 14 15 16 17 18 19 20 21 22 23 24 25 26 27 28 29 30 31 32 33 34 35 36 37 38 39 40 41 42 43 44 45 46 47 48 49 50
000
ASUS45 KSLC 010210
RWRUT

UTAH REGIONAL WEATHER ROUNDUP
NATIONAL WEATHER SERVICE SALT LAKE CITY UT
800 PM MDT TUE SEP 30 2014

UTZ001>011-023>025-010300-

NORTHERN UTAH

CITY           SKY/WX    TMP DP  RH WIND       PRES   REMARKS
HILL AFB       CLOUDY    50  47  87 SE7       29.95R
LOGAN          NOT AVBL
OGDEN          CLOUDY    51  48  89 S7        29.94R
PROVO AIRPORT  MOCLDY    55  43  62 CALM      29.93S
SALT LAKE CITY LGT RAIN  57  44  62 N6        29.93R
VERNAL         MOCLDY    54  45  71 NE5       29.92R
WENDOVER       MOCLDY    57  45  62 CALM      29.93R
HEBER CITY     MOCLDY    46  43  87 CALM      29.97S
WEST JORDAN    CLOUDY    52  48  87 NW7       29.95R

$$

UTZ012>022-026-027-010300-

SOUTHERN UTAH

CITY           SKY/WX    TMP DP  RH WIND       PRES   REMARKS
BRYCE CANYON   CLEAR     48  32  53 N6        30.05R
CEDAR CITY     PTCLDY    58  41  53 SW8       29.93S
MILFORD        CLEAR     60  42  51 S6        29.88F
MOAB/CYNLANDS  CLEAR     61  44  53 NE3       29.87S
PRICE          CLOUDY    58  36  43 NW10      29.94S
ST GEORGE      MOCLDY    75  36  23 W7        29.83S
KANAB            N/A     63  37  39 S5        29.95R

$$

REGIONAL REPORTS     COLORADO/ARIZONA

CITY           SKY/WX    TMP DP  RH WIND       PRES   REMARKS
CRAIG, CO      CLOUDY    47  43  86 CALM      29.99R
GRAND JUNCTION PTCLDY    54  45  71 NE6       29.92R
RIFLE          MOCLDY    52  38  58 N6G21     29.97R
MONTROSE       CLEAR     52  45  77 S8        29.99R
CORTEZ         CLEAR     51  43  74 E3        29.99R
PAGE, AZ       NOT AVBL
GRAND CANYON   CLEAR     52  41  66 CALM      30.02S
KINGMAN        CLEAR     69  40  34 S8        29.86S
FLAGSTAFF      CLEAR     55  35  47 W7        30.06S

$$

REGIONAL REPORTS    NEVADA/IDAHO/WYOMING

CITY           SKY/WX    TMP DP  RH WIND       PRES   REMARKS
LAS VEGAS, NV  CLEAR     82  36  19 E7        29.72S
ELY            MOCLDY    54  33  45 NW6       29.95F
ELKO           PTCLDY    54  36  50 N14G20    29.97R
POCATELLO, ID  PTCLDY    50  37  61 SW15G21   29.94R
BURLEY         PTCLDY    50  34  54 W20G28    29.93R
EVANSTON, WY   CLOUDY    40  38  93 SW9       30.00R WCI  34
ROCK SPRINGS   LGT RAIN  43  39  86 W20       29.96R

$$


USA.gov is the U.S. government's official web portal to all federal, state and local government web resources and services.